Location: Valdosta
(30.8330°N, 83.2790°W)
Time: 21:17:30
(UTC-05:00)

Amateur Radio Satellites - All Passes

Search period start: 20 November 2014 20:47
Search period end: 21 November 2014 20:47
Location: Valdosta, 30.8330°N, 83.2790°W

Satellite Date Start Highest point End Downlink Frequencies (MHz)
Time Altitude Azimuth
AAUSAT CUBESAT 2 20 Nov 20:55:04 20:59:06 54° 76° (ENE) 21:03:09 437.432
CINEMA 3 20 Nov 20:59:40 21:03:33 28° 73° (ENE) 21:07:18 145.822/145.860
BEESAT 3 20 Nov 21:03:05 21:06:41 31° 112° (ESE) 21:10:21 437.485
SHINDAISAT 20 Nov 21:05:45 21:07:36 33° 61° (ENE) 21:09:26 437.305
COMPASS 1 20 Nov 21:06:02 21:10:11 88° 78° (ENE) 21:14:22 437.405
VERMONT LUNAR 20 Nov 21:12:15 21:15:17 24° 15° (NNE) 21:18:18 437.305
BEESAT 2 20 Nov 21:13:24 21:17:10 38° 113° (ESE) 21:21:00 435.950
CUBEBUG 2 20 Nov 21:13:59 21:17:30 24° 72° (ENE) 21:20:57 437.445
DOVE 4 20 Nov 21:15:52 21:20:46 78° 77° (ENE) 21:25:24 437.250
FUNcube-1 20 Nov 21:16:24 21:19:17 18° 71° (ENE) 21:22:09 145.935
CUTE 1.7 & AOD 2 20 Nov 21:21:11 21:25:09 40° 261° (W) 21:29:08 437.475
UKube-1 20 Nov 21:21:38 21:25:51 52° 75° (ENE) 21:30:06 .
AIST 2 20 Nov 21:22:05 21:25:18 22° 110° (ESE) 21:28:35 435.215
UWE-3 20 Nov 21:26:30 21:30:14 29° 73° (ENE) 21:33:54 435.000/436.395/437.385
BRITE-PL 20 Nov 21:28:45 21:33:49 41° 261° (W) 21:38:34 437.365/2234.400
DELFI C3 20 Nov 21:30:17 21:34:16 58° 76° (ENE) 21:38:16 145.870
GOMX 1 20 Nov 21:30:26 21:35:27 53° 260° (W) 21:40:08 467.674
50 SAT 20 Nov 21:36:51 21:39:04 14° 70° (ENE) 21:41:15 437.505
Oscar 11 20 Nov 21:37:30 21:41:47 89° 78° (ENE) 21:46:06 145.826/435.025
DX 1 20 Nov 21:51:04 21:55:25 65° 258° (WSW) 21:59:47 434.975-435.025
PCSat 20 Nov 21:53:03 21:57:46 30° 301° (WNW) 22:02:31 145.827
VELOX 1 20 Nov 21:54:56 21:59:01 35° 73° (ENE) 22:03:06 145.980
SEEDS 20 Nov 22:03:39 22:06:00 15° 266° (W) 22:08:21 437.485
GONETS M04 20 Nov 22:04:45 22:11:43 27° 275° (W) 22:18:40
ZACube-1 20 Nov 22:14:17 22:18:37 82° 258° (WSW) 22:22:51 437.345
PHONESAT 2.4 20 Nov 22:15:26 22:18:57 39° 22° (NNE) 22:22:25 2401.200-2431.200
AISAT 20 Nov 22:16:59 22:21:27 68° 76° (ENE) 22:25:56 437.250
HO-68 20 Nov 22:24:26 22:28:43 17° 266° (W) 22:33:00 435.675
POPSAT HIP 1 20 Nov 22:27:29 22:29:48 14° 95° (E) 22:32:07 437.405
TIGRISAT 20 Nov 22:29:44 22:33:21 25° 97° (E) 22:37:01 435.000
CINEMA 3 20 Nov 22:37:20 22:40:41 20° 264° (W) 22:43:57 145.822/145.860
UNISAT 6 20 Nov 22:39:41 22:43:42 33° 99° (E) 22:47:46 437.425
HUMSAT D 20 Nov 22:42:01 22:46:10 63° 259° (W) 22:50:17 437.325/437.525
BEESAT 3 20 Nov 22:42:12 22:44:57 17° 306° (NW) 22:47:45 437.485
BUGSAT 1 20 Nov 22:44:50 22:47:45 19° 96° (E) 22:50:38 437.445
VERMONT LUNAR 20 Nov 22:50:26 22:54:04 85° 210° (SSW) 22:57:41 437.305
CUBEBUG 2 20 Nov 22:50:45 22:54:06 21° 263° (W) 22:57:23 437.445
FUNcube-1 20 Nov 22:51:44 22:55:25 28° 262° (W) 22:59:04 145.935
CUBEBUG 1 20 Nov 22:52:14 22:56:34 55° 75° (ENE) 23:00:56 437.445
BEESAT 2 20 Nov 22:53:11 22:55:35 15° 307° (NW) 22:58:02 435.950
POLYITAN 1 20 Nov 22:55:59 22:59:50 34° 99° (E) 23:03:41 437.675
AIST 2 20 Nov 23:00:16 23:03:46 25° 304° (NW) 23:07:20 435.215
QB50P2 20 Nov 23:00:23 23:04:21 39° 99° (E) 23:08:18 145.880/145.840
UWE-3 20 Nov 23:03:52 23:06:45 17° 264° (W) 23:09:35 435.000/436.395/437.385
SPROUT 20 Nov 23:06:16 23:08:38 15° 69° (ENE) 23:11:01 437.525
ANTELSAT 20 Nov 23:07:22 23:11:47 75° 102° (ESE) 23:16:18 437.575/2403.000
ESTCUBE 1 20 Nov 23:08:25 23:12:57 90° 259° (W) 23:17:31 437.505/2401.250
DUCHIFAT 1 20 Nov 23:10:13 23:14:20 51° 100° (E) 23:18:25 145.980
50 SAT 20 Nov 23:10:27 23:14:05 31° 262° (W) 23:17:43 437.505
TISAT 1 20 Nov 23:13:51 23:17:06 21° 71° (ENE) 23:20:21 437.305
NANOSAT C BR1 20 Nov 23:28:32 23:32:46 88° 284° (WNW) 23:36:58 145.865
VELOX 1 20 Nov 23:32:58 23:35:39 16° 265° (W) 23:38:20 145.980
QB50P1 20 Nov 23:37:39 23:41:50 67° 284° (WNW) 23:46:00 145.935-145.965
AUBIESAT-1 20 Nov 23:48:12 23:50:10 14° 62° (ENE) 23:52:13 437.475
M-CUBED/EXP-1 PRIME 20 Nov 23:48:54 23:51:11 15° 63° (ENE) 23:53:35 437.505
PHONESAT 2.4 20 Nov 23:54:19 23:57:44 35° 215° (SW) 00:01:07 2401.200-2431.200
POPSAT HIP 1 21 Nov 00:01:59 00:05:45 33° 287° (WNW) 00:09:31 437.405
TIGRISAT 21 Nov 00:06:35 00:09:57 22° 289° (WNW) 00:13:22 435.000
UNISAT 6 21 Nov 00:17:25 00:20:13 17° 290° (WNW) 00:23:02 437.425
BUGSAT 1 21 Nov 00:19:53 00:23:10 24° 289° (WNW) 00:26:24 437.445
JUGNU 21 Nov 00:24:43 00:27:09 13° 162° (SSE) 00:29:36 437.505
ISS 21 Nov 00:25:13 00:28:01 26° 129° (SE) 00:30:50 145.825
VERMONT LUNAR 21 Nov 00:30:56 00:32:10 11° 222° (SW) 00:33:24 437.305
ITUPSAT 1 21 Nov 00:31:20 00:35:04 23° 70° (ENE) 00:38:49 437.325
RS-15 21 Nov 00:31:49 00:38:54 18° 38° (NE) 00:46:07 29.354- 29.394
POLYITAN 1 21 Nov 00:33:09 00:35:28 15° 291° (WNW) 00:37:47 437.675
QB50P2 21 Nov 00:37:59 00:39:53 13° 292° (WNW) 00:41:47 145.880/145.840
SPROUT 21 Nov 00:40:23 00:44:22 36° 261° (W) 00:48:23 437.525
SWISSCUBE 21 Nov 00:43:55 00:48:15 35° 72° (ENE) 00:52:37 437.505
TISAT 1 21 Nov 00:49:19 00:52:46 24° 263° (W) 00:56:14 437.305
Oscar 19 21 Nov 01:01:18 01:04:39 17° 95° (E) 01:07:59 437.125/150
CUSAT 1 21 Nov 01:13:31 01:18:00 88° 263° (W) 01:24:07 437.405
DANDE 21 Nov 01:14:01 01:18:19 78° 83° (E) 01:24:14 436.750
BEESAT 21 Nov 01:15:48 01:20:34 76° 76° (ENE) 01:25:22 436.000
AUBIESAT-1 21 Nov 01:21:26 01:24:47 33° 258° (WSW) 01:28:26 437.475
M-CUBED/EXP-1 PRIME 21 Nov 01:22:44 01:25:57 28° 259° (W) 01:29:26 437.505
KKS-1 21 Nov 01:39:38 01:43:12 24° 71° (ENE) 01:46:46 437.445
ITAMSAT 1 21 Nov 01:41:46 01:44:49 16° 94° (E) 01:47:52 435.822/435.867
ISS 21 Nov 02:02:07 02:04:39 20° 322° (NW) 02:07:11 145.825
ITUPSAT 1 21 Nov 02:08:40 02:12:46 28° 263° (W) 02:16:53 437.325
JUGNU 21 Nov 02:10:58 02:15:36 24° 170° (S) 02:20:15 437.505
SRMSAT 21 Nov 02:12:00 02:15:13 15° 163° (SSE) 02:18:26 437.500
MaSat-1 21 Nov 02:16:13 02:18:06 21° 66° (ENE) 02:20:03 437.345
SWISSCUBE 21 Nov 02:22:55 02:26:09 18° 265° (W) 02:29:23 437.505
Oscar 19 21 Nov 02:39:15 02:44:04 42° 287° (WNW) 02:48:54 437.125/150
RS-15 21 Nov 02:42:13 02:53:32 72° 61° (ENE) 03:05:21 29.354- 29.394
STARS 21 Nov 02:46:30 02:50:55 80° 258° (WSW) 02:55:20 437.465
HORYU 2 21 Nov 02:50:43 02:53:40 17° 95° (E) 02:56:36 437.375
YUBILEINY 21 Nov 03:11:16 03:19:56 64° 92° (E) 03:28:35 435.215
KKS-1 21 Nov 03:16:10 03:19:42 23° 263° (W) 03:23:15 437.445
Gurwin Techsat 1B 21 Nov 03:18:12 03:23:31 89° 284° (WNW) 03:28:49 435.225
ITAMSAT 1 21 Nov 03:19:32 03:24:28 46° 287° (WNW) 03:29:22 435.822/435.867
MOZHAYETS 4 21 Nov 03:42:19 03:43:55 12° 67° (ENE) 03:45:30
AO-7 21 Nov 03:45:59 03:52:53 28° 98° (E) 03:59:43 29.400- 29.500
SO-50 21 Nov 03:46:56 03:47:31 10° 106° (ESE) 03:48:06 436.795
SRMSAT 21 Nov 03:59:02 04:03:50 25° 172° (S) 04:08:38 437.500
JUGNU 21 Nov 03:59:05 04:04:08 29° 180° (S) 04:09:12 437.505
HORYU 2 21 Nov 04:26:22 04:30:20 32° 288° (WNW) 04:34:20 437.375
RS-15 21 Nov 04:56:20 05:04:56 26° 256° (WSW) 05:13:52 29.354- 29.394
YUBILEINY 21 Nov 05:10:50 05:17:13 22° 288° (WNW) 05:23:38 435.215
MOZHAYETS 4 21 Nov 05:16:12 05:20:38 51° 260° (W) 05:25:06
PRISM 21 Nov 05:17:47 05:21:14 25° 71° (ENE) 05:24:42 437.425
SO-50 21 Nov 05:23:05 05:27:27 56° 300° (WNW) 05:31:58 436.795
AO-7 21 Nov 05:37:47 05:45:47 53° 292° (WNW) 05:53:48 29.400- 29.500
JAS-2 21 Nov 05:46:41 05:53:52 78° 102° (ESE) 06:00:09 435.910
SRMSAT 21 Nov 05:47:30 05:52:32 28° 182° (S) 05:57:33 437.500
JUGNU 21 Nov 05:48:05 05:52:40 23° 190° (S) 05:57:16 437.505
CUTE-I 21 Nov 05:58:38 06:02:47 23° 96° (E) 06:06:55 437.470
STRAND 1 21 Nov 06:37:07 06:42:14 74° 75° (ENE) 06:47:23 437.568
CUBESAT XI-V 21 Nov 06:41:27 06:46:09 83° 77° (ENE) 06:50:53 437.345
PCSat 21 Nov 06:45:36 06:51:00 68° 64° (ENE) 06:56:22 145.827
PRISM 21 Nov 06:53:46 06:56:43 19° 264° (W) 06:59:42 437.425
Cubesat XI-IV 21 Nov 06:54:35 06:59:56 89° 284° (WNW) 07:05:14 437.490
O/OREOS (USA 219) 21 Nov 06:55:29 06:59:55 61° 106° (ESE) 07:04:21 437.305
AIST 1 21 Nov 06:56:38 06:58:31 13° 75° (ENE) 07:00:24
BEESAT 3 21 Nov 07:05:45 07:09:52 56° 61° (ENE) 07:13:55 437.485
BEESAT 2 21 Nov 07:16:35 07:20:46 69° 62° (ENE) 07:24:53 435.950
AIST 2 21 Nov 07:26:47 07:30:51 40° 59° (ENE) 07:34:50 435.215
JAS-2 21 Nov 07:34:00 07:37:49 15° 300° (WNW) 07:41:26 435.910
SRMSAT 21 Nov 07:36:51 07:41:12 21° 192° (SSW) 07:45:32 437.500
CUTE-I 21 Nov 07:38:06 07:42:49 33° 289° (WNW) 07:47:31 437.470
JUGNU 21 Nov 07:38:57 07:41:07 12° 199° (SSW) 07:43:16 437.505
HO-68 21 Nov 08:09:28 08:13:44 17° 94° (E) 08:17:58 435.675
PCSat 21 Nov 08:32:10 08:33:44 11° 257° (WSW) 08:35:18 145.827
AIST 1 21 Nov 08:32:15 08:36:19 38° 268° (W) 08:40:20
ISS 21 Nov 08:34:10 08:37:08 30° 41° (NE) 08:40:06 145.825
CANX-2 21 Nov 08:37:25 08:40:35 20° 96° (E) 08:43:44 2200.000
AAUSAT CUBESAT 2 21 Nov 08:45:53 08:48:03 14° 94° (E) 08:50:13 437.432
COMPASS 1 21 Nov 08:56:21 08:59:39 22° 96° (E) 09:02:57 437.405
GONETS M04 21 Nov 09:00:25 09:09:06 71° 92° (E) 09:17:52
AIST 2 21 Nov 09:07:03 09:09:03 13° 252° (WSW) 09:11:02 435.215
CUTE 1.7 & AOD 2 21 Nov 09:11:58 09:16:07 50° 100° (E) 09:20:17 437.475
UKube-1 21 Nov 09:16:51 09:19:01 14° 95° (E) 09:21:12 .
DELFI C3 21 Nov 09:18:30 09:20:29 13° 94° (E) 09:22:27 145.870
DOVE 4 21 Nov 09:21:15 09:24:51 28° 98° (E) 09:28:31 437.250
TIGRISAT 21 Nov 09:26:02 09:27:23 11° 68° (ENE) 09:28:44 435.000
Oscar 11 21 Nov 09:31:05 09:34:37 24° 97° (E) 09:38:09 145.826/435.025
UNISAT 6 21 Nov 09:35:19 09:37:52 16° 69° (ENE) 09:40:24 437.425
GOMX 1 21 Nov 09:38:03 09:42:10 67° 101° (E) 09:46:22 467.674
BRITE-PL 21 Nov 09:39:20 09:43:28 79° 283° (WNW) 09:47:38 437.365/2234.400
DX 1 21 Nov 09:45:27 09:49:21 32° 99° (E) 09:53:14 434.975-435.025
POLYITAN 1 21 Nov 09:45:52 09:48:08 14° 69° (ENE) 09:50:23 437.675
QB50P2 21 Nov 09:49:46 09:52:21 16° 69° (ENE) 09:54:57 145.880/145.840
SEEDS 21 Nov 09:51:54 09:56:05 58° 284° (WNW) 10:00:17 437.485
VELOX 1 21 Nov 09:54:40 09:55:04 10° 93° (E) 09:55:28 145.980
HO-68 21 Nov 09:54:44 10:01:51 69° 288° (WNW) 10:08:56 435.675
DUCHIFAT 1 21 Nov 09:58:47 10:01:54 20° 71° (ENE) 10:05:01 145.980
ANTELSAT 21 Nov 10:01:56 10:05:48 33° 73° (ENE) 10:09:37 437.575/2403.000
ZACube-1 21 Nov 10:09:04 10:12:41 27° 98° (E) 10:16:21 437.345
ISS 21 Nov 10:11:25 10:13:35 17° 233° (SW) 10:15:46 145.825
CANX-2 21 Nov 10:12:55 10:16:25 25° 288° (WNW) 10:19:56 2200.000
AISAT 21 Nov 10:14:50 10:18:06 20° 96° (E) 10:21:22 437.250
NANOSAT C BR1 21 Nov 10:16:28 10:20:18 33° 73° (ENE) 10:24:08 145.865
AAUSAT CUBESAT 2 21 Nov 10:19:57 10:23:48 35° 286° (WNW) 10:27:38 437.432
QB50P1 21 Nov 10:25:22 10:29:25 43° 74° (ENE) 10:33:28 145.935-145.965
COMPASS 1 21 Nov 10:31:57 10:35:15 22° 288° (WNW) 10:38:33 437.405
HUMSAT D 21 Nov 10:32:32 10:36:13 30° 98° (E) 10:39:56 437.325/437.525
CINEMA 3 21 Nov 10:36:33 10:40:37 53° 284° (WNW) 10:44:48 145.822/145.860
FUNcube-1 21 Nov 10:45:08 10:49:21 81° 102° (ESE) 10:53:38 145.935
CUBEBUG 2 21 Nov 10:46:17 10:50:28 68° 283° (WNW) 10:54:44 437.445
CUBEBUG 1 21 Nov 10:48:26 10:51:04 16° 95° (E) 10:53:40 437.445
POPSAT HIP 1 21 Nov 10:49:09 10:53:26 88° 77° (ENE) 10:57:43 437.405
CUTE 1.7 & AOD 2 21 Nov 10:50:43 10:51:34 11° 292° (WNW) 10:52:25 437.475
UKube-1 21 Nov 10:51:17 10:55:16 37° 287° (WNW) 10:59:15 .
DELFI C3 21 Nov 10:52:05 10:55:51 35° 286° (WNW) 10:59:36 145.870
50 SAT 21 Nov 10:56:37 11:00:34 51° 100° (E) 11:04:32 437.505
UWE-3 21 Nov 10:57:48 11:01:56 56° 284° (WNW) 11:06:09 435.000/436.395/437.385
TIGRISAT 21 Nov 10:59:35 11:03:43 45° 260° (W) 11:07:49 435.000
DOVE 4 21 Nov 10:59:47 11:02:24 16° 290° (WNW) 11:05:03 437.250
GONETS M04 21 Nov 11:00:40 11:06:34 20° 289° (WNW) 11:12:32
BUGSAT 1 21 Nov 11:03:49 11:08:05 73° 258° (WSW) 11:12:22 437.445
Oscar 11 21 Nov 11:07:20 11:10:37 21° 289° (WNW) 11:13:54 145.826/435.025
ESTCUBE 1 21 Nov 11:07:25 11:11:22 29° 98° (E) 11:15:18 437.505/2401.250
UNISAT 6 21 Nov 11:10:29 11:14:23 33° 262° (W) 11:18:14 437.425
POLYITAN 1 21 Nov 11:19:47 11:23:44 36° 261° (W) 11:27:41 437.675
DX 1 21 Nov 11:22:35 11:25:17 16° 291° (WNW) 11:27:59 434.975-435.025
QB50P2 21 Nov 11:24:09 11:27:59 32° 262° (W) 11:31:49 145.880/145.840
SHINDAISAT 21 Nov 11:25:39 11:27:32 54° 298° (WNW) 11:29:27 437.305
VELOX 1 21 Nov 11:27:35 11:31:52 50° 285° (WNW) 11:36:07 145.980
DUCHIFAT 1 21 Nov 11:34:03 11:37:35 25° 263° (W) 11:41:07 145.980
ANTELSAT 21 Nov 11:40:10 11:42:38 15° 265° (W) 11:45:06 437.575/2403.000
ZACube-1 21 Nov 11:46:00 11:48:51 18° 289° (WNW) 11:51:43 437.345
AISAT 21 Nov 11:50:59 11:54:40 26° 289° (WNW) 11:58:20 437.250
NANOSAT C BR1 21 Nov 11:53:47 11:56:13 15° 265° (W) 11:58:40 145.865
QB50P1 21 Nov 12:04:06 12:05:27 11° 266° (W) 12:06:47 145.935-145.965
HUMSAT D 21 Nov 12:09:16 12:11:45 16° 290° (WNW) 12:14:16 437.325/437.525
Oscar 19 21 Nov 12:13:48 12:16:36 15° 66° (ENE) 12:19:24 437.125/150
CUBEBUG 1 21 Nov 12:23:34 12:27:28 33° 287° (WNW) 12:31:20 437.445
SPROUT 21 Nov 12:32:30 12:36:44 58° 101° (E) 12:40:55 437.525
TISAT 1 21 Nov 12:39:08 12:43:21 84° 102° (ESE) 12:47:32 437.305
ESTCUBE 1 21 Nov 12:44:45 12:48:00 20° 290° (WNW) 12:51:15 437.505/2401.250
SWISSCUBE 21 Nov 12:51:27 12:54:00 14° 94° (E) 12:56:33 437.505
ITAMSAT 1 21 Nov 12:55:09 12:57:58 15° 66° (ENE) 13:00:48 435.822/435.867
AUBIESAT-1 21 Nov 13:08:46 13:13:12 33° 102° (ESE) 13:17:32 437.475
M-CUBED/EXP-1 PRIME 21 Nov 13:10:08 13:14:44 38° 103° (ESE) 13:19:13 437.505
BEESAT 21 Nov 13:22:16 13:26:28 30° 98° (E) 13:30:39 436.000
YUBILEINY 21 Nov 13:29:40 13:36:15 23° 73° (ENE) 13:42:46 435.215
Oscar 19 21 Nov 13:50:31 13:55:27 50° 260° (W) 14:00:25 437.125/150
SO-50 21 Nov 13:59:56 14:04:15 30° 56° (ENE) 14:08:33 436.795
ITUPSAT 1 21 Nov 14:14:13 14:19:01 69° 285° (WNW) 14:23:45 437.325
CUSAT 1 21 Nov 14:23:23 14:26:10 25° 278° (W) 14:28:34 437.405
DANDE 21 Nov 14:26:15 14:29:25 31° 278° (W) 14:32:02 436.750
SWISSCUBE 21 Nov 14:27:28 14:32:00 43° 287° (WNW) 14:36:31 437.505
ITAMSAT 1 21 Nov 14:31:52 14:36:57 53° 259° (W) 14:42:03 435.822/435.867
Gurwin Techsat 1B 21 Nov 14:33:43 14:39:01 84° 76° (ENE) 14:44:21 435.225
AO-7 21 Nov 14:39:57 14:46:13 25° 61° (ENE) 14:52:29 29.400- 29.500
STARS 21 Nov 14:42:39 14:46:27 29° 98° (E) 14:50:14 437.465
AUBIESAT-1 21 Nov 14:44:09 14:47:54 23° 295° (WNW) 14:51:38 437.475
M-CUBED/EXP-1 PRIME 21 Nov 14:45:53 14:49:25 20° 295° (WNW) 14:52:56 437.505
RS-15 21 Nov 14:54:40 14:58:45 13° 99° (E) 15:02:46 29.354- 29.394
BEESAT 21 Nov 15:00:30 15:04:05 21° 291° (WNW) 15:07:39 436.000
PHONESAT 2.4 21 Nov 15:07:41 15:09:44 14° 139° (SE) 15:11:47 2401.200-2431.200
KKS-1 21 Nov 15:11:57 15:16:23 77° 284° (WNW) 15:20:48 437.445
HORYU 2 21 Nov 15:19:06 15:23:29 69° 258° (WSW) 15:27:54 437.375
YUBILEINY 21 Nov 15:24:58 15:33:27 60° 269° (W) 15:41:54 435.215
VERMONT LUNAR 21 Nov 15:37:59 15:41:23 39° 145° (SE) 15:44:48 437.305
SO-50 21 Nov 15:40:42 15:44:38 25° 250° (WSW) 15:48:33 436.795
MaSat-1 21 Nov 15:40:43 15:43:20 21° 108° (ESE) 15:45:46 437.345
JAS-2 21 Nov 15:52:33 15:57:57 22° 63° (ENE) 16:03:33 435.910
STARS 21 Nov 16:19:39 16:22:41 19° 290° (WNW) 16:25:44 437.465
AO-7 21 Nov 16:30:10 16:38:19 62° 256° (WSW) 16:46:32 29.400- 29.500
PHONESAT 2.4 21 Nov 16:44:29 16:48:12 83° 331° (NNW) 16:51:55 2401.200-2431.200
RS-15 21 Nov 16:58:19 17:09:22 80° 114° (ESE) 17:20:16 29.354- 29.394
O/OREOS (USA 219) 21 Nov 17:10:57 17:15:15 46° 69° (ENE) 17:19:32 437.305
CUTE-I 21 Nov 17:15:27 17:19:36 23° 69° (ENE) 17:23:45 437.470
VERMONT LUNAR 21 Nov 17:16:32 17:19:54 35° 339° (NNW) 17:23:17 437.305
MaSat-1 21 Nov 17:16:48 17:17:56 12° 297° (WNW) 17:19:02 437.345
MOZHAYETS 4 21 Nov 17:16:52 17:21:28 57° 100° (E) 17:26:02
JAS-2 21 Nov 17:35:00 17:42:09 65° 259° (W) 17:49:54 435.910
Cubesat XI-IV 21 Nov 18:11:04 18:16:26 87° 76° (ENE) 18:21:50 437.490
PHONESAT 2.4 21 Nov 18:24:18 18:27:21 23° 347° (NNW) 18:30:24 2401.200-2431.200
PRISM 21 Nov 18:41:08 18:45:24 85° 283° (WNW) 18:49:36 437.425
CUBESAT XI-V 21 Nov 18:44:25 18:48:35 32° 97° (E) 18:52:41 437.345
O/OREOS (USA 219) 21 Nov 18:52:51 18:54:09 11° 261° (W) 18:55:27 437.305
STRAND 1 21 Nov 18:53:36 18:58:22 39° 99° (E) 19:03:05 437.568
CUTE-I 21 Nov 18:54:34 18:59:24 34° 262° (W) 19:04:16 437.470
VERMONT LUNAR 21 Nov 18:56:31 18:59:03 18° 356° (N) 19:01:36 437.305
MOZHAYETS 4 21 Nov 18:56:56 18:58:08 11° 293° (WNW) 18:59:20
RS-15 21 Nov 19:14:18 19:22:50 25° 315° (NW) 19:31:26 29.354- 29.394
GONETS M04 21 Nov 19:18:40 19:25:46 27° 74° (ENE) 19:32:47
PCSat 21 Nov 19:40:20 19:44:03 19° 105° (ESE) 19:47:47 145.827
CUTE 1.7 & AOD 2 21 Nov 20:01:00 20:03:53 18° 70° (ENE) 20:06:46 437.475
PHONESAT 2.4 21 Nov 20:04:18 20:06:58 18° 4° (N) 20:09:37 2401.200-2431.200
HO-68 21 Nov 20:16:54 20:23:47 52° 70° (ENE) 20:30:42 435.675
CUBESAT XI-V 21 Nov 20:22:29 20:25:44 19° 291° (WNW) 20:28:59 437.345
DOVE 4 21 Nov 20:22:31 20:25:49 19° 71° (ENE) 20:29:00 437.250
STRAND 1 21 Nov 20:33:42 20:37:12 19° 292° (WNW) 20:40:41 437.568
VERMONT LUNAR 21 Nov 20:35:26 20:38:22 23° 13° (NNE) 20:41:17 437.305
DX 1 21 Nov 20:37:17 20:39:50 15° 68° (ENE) 20:42:23 434.975-435.025
SEEDS 21 Nov 20:39:01 20:43:01 46° 75° (ENE) 20:47:02 437.485
SHINDAISAT 21 Nov 20:43:43 20:45:22 25° 60° (ENE) 20:46:59 437.305
